Regional Weather Roundup
Issued by NWS

Home | Current Version | Previous Version | Graphics & Text | Print | Product List | Glossary On
Versions: 1 2 3 4 5 6 7 8 9 10 11 12 13 14 15 16 17 18 19 20 21 22 23 24 25 26 27 28 29 30 31 32 33 34 35 36 37 38 39 40 41 42 43 44 45 46 47 48 49 50
000
ASUS45 KSLC 040410
RWRUT

UTAH REGIONAL WEATHER ROUNDUP
NATIONAL WEATHER SERVICE SALT LAKE CITY UT
1000 PM MDT TUE MAY 03 2016

UTZ001>011-023>025-040500-

NORTHERN UTAH

CITY           SKY/WX    TMP DP  RH WIND       PRES   REMARKS
BRIGHAM CITY   CLEAR     60  40  48 SE3       30.16R
HILL AFB       CLEAR     62  28  27 S1        30.17R
LOGAN          CLEAR     60  36  40 S6        30.15R
OGDEN          CLEAR     60  31  33 S5        30.15R
PROVO AIRPORT  CLEAR     61  43  51 N3        30.15R
SALT LAKE CITY CLEAR     62  38  40 CALM      30.15R
VERNAL         CLEAR     57  28  33 NW6       30.21R
WENDOVER       CLEAR     61  37  41 W3        30.15R
HEBER CITY     CLEAR     52  34  50 SE3       30.19R

$$

UTZ012>022-026-027-040500-

SOUTHERN/CENTRAL UTAH

CITY           SKY/WX    TMP DP  RH WIND       PRES   REMARKS
BLANDING       CLEAR     53  33  46 NW8       30.29R
BRYCE CANYON   CLEAR     42  28  57 SE7       30.32R
CEDAR CITY     CLEAR     59  33  37 SE9       30.16R
DELTA          CLEAR     59  34  38 NE6       30.14R
HANKSVILLE     CLEAR     55  32  41 NE3       30.17R
MILFORD        CLEAR     55  33  43 NE5       30.15R
MOAB/CYNLANDS  CLEAR     60  34  37 W8        30.13R
PRICE          CLEAR     54  26  34 N10       30.21R
ST GEORGE      CLEAR     70  36  28 E8        30.03R
KANAB          CLEAR     57  32  38 N5        30.20R

$$

REGIONAL REPORTS     COLORADO/ARIZONA

CITY           SKY/WX    TMP DP  RH WIND       PRES   REMARKS
CRAIG, CO      CLEAR     44  34  67 CALM      30.26R
GRAND JUNCTION CLEAR     58  35  42 NE8       30.15R
RIFLE          CLEAR     55  31  39 SW5       30.21R
MONTROSE       CLEAR     55  30  38 SE12      30.23R
CORTEZ         CLEAR     51  31  46 CALM      30.23R
PAGE, AZ       CLEAR     66  29  24 CALM      30.14R
GRAND CANYON   CLEAR     45  31  58 CALM      30.25R
KINGMAN        MOCLDY    66  43  43 S3        30.01R
FLAGSTAFF      CLEAR     43  33  68 E5        30.26R

$$

REGIONAL REPORTS    NEVADA/IDAHO/WYOMING

CITY           SKY/WX    TMP DP  RH WIND       PRES   REMARKS
LAS VEGAS, NV  MOCLDY    80  30  16 NW7       29.91R
ELY            CLEAR     49  31  49 S9        30.19R
ELKO           PTCLDY    59  37  44 E5        30.12R
POCATELLO, ID  CLEAR     55  40  56 E3        30.16R
BURLEY         CLEAR     56  41  57 SE3       30.10R
EVANSTON, WY   CLEAR     55  20  25 VRB3      30.27R
ROCK SPRINGS   CLEAR     56  21  25 S3        30.27R
KEMMERER         N/A     54  18  24 S5        30.29R

$$



USA.gov is the U.S. government's official web portal to all federal, state and local government web resources and services.